Regional Weather Roundup
Issued by NWS Albany, NY

Home | Current Version | Previous Version | Text Only | Print | Product List | Glossary On
Versions: 1 2 3 4 5 6 7 8 9 10 11 12 13 14 15 16 17 18 19 20 21 22 23 24 25 26 27 28
000
ASUS41 KALY 161610
RWRALY

NEW YORK STATE HOURLY WEATHER ROUNDUP
NATIONAL WEATHER SERVICE ALBANY NY
1100 AM EST TUE JAN 16 2018

NOTE: "FAIR" INDICATES FEW OR NO CLOUDS BELOW 12,000 FEET WITH NO
SIGNIFICANT WEATHER AND/OR NO OBSTRUCTIONS TO VISIBILITY.

NYZ032-033-038>043-046>054-057>066-NYZ062>081-082-084-161700-
EAST


CITY           SKY/WX    TMP DP  RH WIND       PRES   REMARKS
ALBANY         FLURRIES  25  19  78 S7        30.47F WCI  17
GLENS FALLS    SNOW      20  16  84 S8        30.46F VSB 1/2 WCI  10
POUGHKEEPSIE   LGT SNOW  26  21  81 CALM      30.50F
NEWBURGH       PTSUNNY   25  23  93 VRB5      30.49S FOG     WCI  19
MONTGOMERY     LGT SNOW  26  21  81 CALM      30.46F
WHITE PLAINS   PTSUNNY   27  20  75 SE3       30.47F
ISLIP          CLOUDY    34  25  69 E7        30.49F WCI  28
NEW YORK CITY  CLOUDY    30  24  78 NE6       30.50F WCI  24
CENTRAL PARK   CLOUDY    33  25  72 N5        30.51F WCI  29
$$

NYZ005>009-017-018-044>046-055-056-161700-
CENTRAL


CITY           SKY/WX    TMP DP  RH WIND       PRES   REMARKS
FULTON         PTSUNNY   24  20  84 S7        30.40S WCI  16
SYRACUSE       CLOUDY    21  19  92 CALM      30.40F
ROME           CLOUDY    21  17  84 SE7       30.43F WCI  12
ELMIRA         CLOUDY    23  22  96 CALM      30.39S FOG
BINGHAMTON     LGT SNOW  23  21  92 SW5       30.33F VSB 3/4 WCI  17
MONTICELLO     LGT SNOW  27  23  86 SE3       30.41F FOG
$$

NYZ026>034-041>043-087-161700-
NORTH


CITY           SKY/WX    TMP DP  RH WIND       PRES   REMARKS
WATERTOWN      CLOUDY    39  19  44 S8        30.39F HAZE    WCI  33
FORT DRUM      NOT AVBL
OGDENSBURG     PTSUNNY   12   8  81 NE5       30.42F WCI   5
MASSENA        LGT SNOW   8   4  83 E8        30.46S FOG     WCI  -4
SARANAC LAKE   CLOUDY    16  14  92 CALM      30.30S FOG
PLATTSBURGH    CLOUDY    11   6  81 CALM      30.44F
$$

NYZ001>004-010>016-019>021-085-161700-
WEST


CITY           SKY/WX    TMP DP  RH WIND       PRES   REMARKS
NIAGARA FALLS  PTSUNNY   25  19  78 SW12      30.38S WCI  14
BUFFALO        FAIR      25  19  78 SW10      30.38S WCI  15
DUNKIRK        PTSUNNY   24  18  77 SW6       30.40R WCI  17
JAMESTOWN      FLURRIES  23  17  78 S3        30.32R
WELLSVILLE     LGT SNOW  23  18  81 MISG      30.31S
ROCHESTER      FAIR      27  20  75 SW13      30.39S WCI  16
PENN YAN       CLOUDY    24  17  74 SW8       30.38R WCI  15
$$

             KEY
       WCI = WIND CHILL INDEX
       VSB = VISIBILITY
       HX  = HEAT INDEX
$$




USA.gov is the U.S. government's official web portal to all federal, state and local government web resources and services.